Location: La Fredeussais
(48.1780°N, 1.3980°W)
Time: 03:55:12
(UTC+00:00)

Cosmos 1898 Rocket - Pass Details

Date: 09 May 2021
Orbit: 753 x 784 km, 74.0° (Epoch: 13 June)

Event Time Altitude Azimuth Distance (km) Brightness Sun altitude
Exits shadow 22:20:56 37° 120° (ESE) 1,201 4.1 -20.4°
Maximum altitude 22:21:34 38° 103° (ESE) 1,173 4.1 -20.5°
Drops below altitude 10° 22:26:28 10° 36° (NE) 2,346 6.4 -20.8°
Sets 22:29:00 0° 29° (NNE) 3,282 7.3 -21.0°
